OCN1RK EDDF-LPMA

Flight info

Callsign OCN1RK
Flight time 3h 50m
Altitude 33000
Route ANEKI2L/18 ANEKI Y163 HERBI Y164 MOPAN DCT LUTIX/N0441F350 DCT BENOT DCT NEMOS DCT NINTU DCT MEBAK DCT REPSI DCT LERGA DCT MINSO DCT NARAK DCT AGN DCT LATEK DCT PPN DCT MIRPO DCT DGO DCT NEA DCT ARDID DCT GANSU DCT NARTA/N0441F370 DCT RAKUN
Aircraft A320/M-SDE2E3FGIJ1LORWXYZ/HB1

Departure

Time 2026-04-14 10:00
Airport Frankfurt Main Airport (EDDF)

Arrival

Time 2026-04-14 13:50
Airport Cristiano Ronaldo International Airport (LPMA)
Time Latitude Longitude Altitude Speed Heading
2026-04-14 09:25 50.04634 8.56673 359 ft 0 kts 115°
2026-04-14 09:43 50.04639 8.56655 361 ft 3 kts 114°
2026-04-14 09:43 50.04648 8.56627 358 ft 3 kts 114°
2026-04-14 09:44 50.04656 8.56598 358 ft 3 kts 115°
2026-04-14 09:44 50.04663 8.56574 362 ft 3 kts 123°
2026-04-14 09:44 50.04675 8.56552 357 ft 3 kts 154°
2026-04-14 09:44 50.04692 8.56547 359 ft 3 kts 199°
2026-04-14 09:45 50.04709 8.56561 357 ft 3 kts 225°
2026-04-14 09:45 50.04720 8.56582 358 ft 1 kts 236°
2026-04-14 09:45 50.04727 8.56598 362 ft 3 kts 233°
2026-04-14 09:45 50.04740 8.56623 358 ft 3 kts 227°
2026-04-14 09:46 50.04754 8.56645 365 ft 3 kts 220°
2026-04-14 09:46 50.04770 8.56664 363 ft 3 kts 210°
2026-04-14 09:46 50.04780 8.56672 360 ft 0 kts 205°
2026-04-14 09:48 50.04770 8.56665 363 ft 5 kts 205°
2026-04-14 09:49 50.04737 8.56618 357 ft 7 kts 232°
2026-04-14 09:49 50.04712 8.56569 358 ft 5 kts 233°
2026-04-14 09:49 50.04694 8.56532 359 ft 4 kts 233°
2026-04-14 09:49 50.04675 8.56469 358 ft 9 kts 249°
2026-04-14 09:50 50.04652 8.56374 363 ft 9 kts 250°
2026-04-14 09:50 50.04632 8.56290 356 ft 8 kts 249°
2026-04-14 09:50 50.04611 8.56200 361 ft 10 kts 249°
2026-04-14 09:50 50.04587 8.56100 357 ft 9 kts 250°
2026-04-14 09:51 50.04566 8.56012 358 ft 9 kts 248°
2026-04-14 09:51 50.04526 8.55955 362 ft 8 kts 201°
2026-04-14 09:51 50.04475 8.55932 358 ft 6 kts 197°
2026-04-14 09:51 50.04435 8.55913 356 ft 7 kts 196°
2026-04-14 09:52 50.04373 8.55912 356 ft 11 kts 166°
2026-04-14 09:52 50.04299 8.55954 355 ft 11 kts 160°
2026-04-14 09:52 50.04227 8.55889 358 ft 15 kts 250°
2026-04-14 09:52 50.04193 8.55746 360 ft 14 kts 250°
2026-04-14 09:53 50.04161 8.55610 356 ft 13 kts 250°
2026-04-14 09:53 50.04128 8.55474 354 ft 14 kts 249°
2026-04-14 09:53 50.04098 8.55346 353 ft 11 kts 250°
2026-04-14 09:53 50.04071 8.55236 355 ft 12 kts 249°
2026-04-14 09:54 50.04036 8.55087 359 ft 18 kts 250°
2026-04-14 09:54 50.03988 8.54888 355 ft 22 kts 250°
2026-04-14 09:54 50.03933 8.54658 357 ft 24 kts 249°
2026-04-14 09:54 50.03876 8.54420 353 ft 22 kts 250°
2026-04-14 09:55 50.03800 8.54215 352 ft 22 kts 246°
2026-04-14 09:55 50.03748 8.54006 347 ft 20 kts 250°
2026-04-14 09:55 50.03703 8.53813 344 ft 18 kts 248°
2026-04-14 09:55 50.03661 8.53643 351 ft 16 kts 249°
2026-04-14 09:56 50.03621 8.53489 340 ft 15 kts 249°
2026-04-14 09:56 50.03588 8.53350 338 ft 13 kts 250°
2026-04-14 09:56 50.03558 8.53224 335 ft 12 kts 250°
2026-04-14 09:56 50.03531 8.53111 335 ft 10 kts 249°
2026-04-14 09:57 50.03501 8.52985 334 ft 14 kts 250°
2026-04-14 09:57 50.03465 8.52849 336 ft 13 kts 246°
2026-04-14 09:57 50.03432 8.52722 331 ft 12 kts 249°
2026-04-14 09:57 50.03394 8.52622 333 ft 10 kts 221°
2026-04-14 09:58 50.03338 8.52594 335 ft 5 kts 181°
2026-04-14 09:58 50.03336 8.52594 335 ft 0 kts 181°
2026-04-14 09:59 50.03263 8.52594 334 ft 39 kts 179°
2026-04-14 09:59 50.02740 8.52601 335 ft 108 kts 179°
2026-04-14 09:59 50.01804 8.52610 334 ft 159 kts 180°
2026-04-14 09:59 50.00590 8.52544 603 ft 181 kts 184°
2026-04-14 10:00 49.99338 8.52458 1268 ft 184 kts 179°
2026-04-14 10:00 49.98000 8.52547 1567 ft 203 kts 176°
2026-04-14 10:00 49.96514 8.52710 1822 ft 224 kts 175°
2026-04-14 10:00 49.94915 8.52884 2348 ft 234 kts 176°
2026-04-14 10:01 49.93260 8.53046 3129 ft 236 kts 176°
2026-04-14 10:01 49.91626 8.53189 3766 ft 241 kts 176°
2026-04-14 10:01 49.89943 8.53324 4464 ft 244 kts 176°
2026-04-14 10:01 49.88243 8.53450 5188 ft 246 kts 177°
2026-04-14 10:02 49.86530 8.53572 5921 ft 247 kts 178°
2026-04-14 10:02 49.84811 8.53691 6653 ft 248 kts 178°
2026-04-14 10:02 49.83074 8.53810 7055 ft 250 kts 178°
2026-04-14 10:02 49.81335 8.53924 7148 ft 250 kts 178°
2026-04-14 10:03 49.79594 8.54040 7166 ft 251 kts 178°
2026-04-14 10:03 49.77854 8.54100 7190 ft 252 kts 186°
2026-04-14 10:03 49.76032 8.53853 7433 ft 274 kts 186°
2026-04-14 10:03 49.74097 8.53595 8003 ft 282 kts 186°
2026-04-14 10:04 49.72129 8.53337 8729 ft 285 kts 186°
2026-04-14 10:04 49.70153 8.53078 9528 ft 285 kts 187°
2026-04-14 10:04 49.68177 8.52817 10278 ft 286 kts 186°
2026-04-14 10:04 49.66121 8.52544 10499 ft 308 kts 186°
2026-04-14 10:05 49.63915 8.52248 10670 ft 328 kts 186°
2026-04-14 10:05 49.61609 8.51946 11152 ft 336 kts 186°
2026-04-14 10:05 49.59271 8.51645 11805 ft 338 kts 186°
2026-04-14 10:05 49.56914 8.51342 12457 ft 342 kts 186°
2026-04-14 10:06 49.54539 8.51033 13088 ft 344 kts 186°
2026-04-14 10:06 49.52141 8.50715 13715 ft 347 kts 186°
2026-04-14 10:06 49.49722 8.50395 14284 ft 350 kts 186°
2026-04-14 10:06 49.47283 8.50074 14824 ft 353 kts 186°
2026-04-14 10:07 49.44825 8.49750 15378 ft 356 kts 186°
2026-04-14 10:07 49.42349 8.49425 15916 ft 358 kts 186°
2026-04-14 10:07 49.39856 8.49096 16450 ft 361 kts 186°
2026-04-14 10:07 49.37345 8.48766 16973 ft 364 kts 186°
2026-04-14 10:08 49.34812 8.48436 17487 ft 367 kts 186°
2026-04-14 10:08 49.32263 8.48103 17994 ft 369 kts 186°
2026-04-14 10:08 49.29694 8.47770 18491 ft 372 kts 186°
2026-04-14 10:08 49.27103 8.47436 18928 ft 375 kts 186°
2026-04-14 10:09 49.24496 8.47100 19372 ft 377 kts 186°
2026-04-14 10:09 49.21878 8.46761 19819 ft 379 kts 186°
2026-04-14 10:09 49.19240 8.46417 20242 ft 381 kts 186°
2026-04-14 10:09 49.16588 8.46075 20668 ft 384 kts 186°
2026-04-14 10:10 49.13920 8.45732 21093 ft 386 kts 186°
2026-04-14 10:10 49.11240 8.45384 21516 ft 388 kts 186°
2026-04-14 10:10 49.08543 8.45032 21934 ft 390 kts 186°
2026-04-14 10:10 49.05880 8.44569 22330 ft 391 kts 192°
2026-04-14 10:11 49.03184 8.43650 22736 ft 393 kts 194°
2026-04-14 10:11 49.00511 8.42712 23136 ft 395 kts 194°
2026-04-14 10:11 48.97828 8.41771 23524 ft 397 kts 193°
2026-04-14 10:11 48.95162 8.40840 23883 ft 399 kts 193°
2026-04-14 10:12 48.92449 8.39895 24213 ft 401 kts 193°
2026-04-14 10:12 48.89684 8.38936 24548 ft 403 kts 193°
2026-04-14 10:12 48.86948 8.37993 24874 ft 404 kts 193°
2026-04-14 10:12 48.84239 8.37061 25191 ft 406 kts 194°
2026-04-14 10:13 48.81444 8.36095 25516 ft 407 kts 194°
2026-04-14 10:13 48.78678 8.35136 25827 ft 409 kts 194°
2026-04-14 10:13 48.75936 8.34165 26114 ft 411 kts 194°
2026-04-14 10:13 48.73116 8.33135 26400 ft 413 kts 194°
2026-04-14 10:14 48.70319 8.32098 26691 ft 414 kts 195°
2026-04-14 10:14 48.67519 8.31062 26985 ft 416 kts 195°
2026-04-14 10:14 48.64741 8.30039 27278 ft 417 kts 195°
2026-04-14 10:14 48.61913 8.29003 27568 ft 419 kts 194°
2026-04-14 10:15 48.59077 8.27971 27859 ft 420 kts 194°
2026-04-14 10:15 48.56232 8.26940 28144 ft 422 kts 194°
2026-04-14 10:15 48.53332 8.25890 28436 ft 423 kts 195°
2026-04-14 10:15 48.50464 8.24853 28709 ft 425 kts 195°
2026-04-14 10:16 48.47587 8.23818 28986 ft 426 kts 195°
2026-04-14 10:16 48.44702 8.22770 29249 ft 427 kts 195°
2026-04-14 10:16 48.41809 8.21710 29503 ft 429 kts 195°
2026-04-14 10:16 48.38944 8.20659 29748 ft 430 kts 195°
2026-04-14 10:17 48.36031 8.19591 29995 ft 431 kts 195°
2026-04-14 10:17 48.33111 8.18524 30206 ft 433 kts 195°
2026-04-14 10:17 48.30177 8.17456 30469 ft 433 kts 195°
2026-04-14 10:17 48.27250 8.16394 30722 ft 433 kts 195°
2026-04-14 10:18 48.21629 8.13241 31155 ft 432 kts 207°
2026-04-14 10:18 48.18937 8.11237 31357 ft 433 kts 207°
2026-04-14 10:18 48.16234 8.09228 31596 ft 434 kts 207°
2026-04-14 10:19 48.13527 8.07224 31803 ft 434 kts 207°
2026-04-14 10:19 48.10814 8.05220 32016 ft 435 kts 207°
2026-04-14 10:19 48.08096 8.03219 32226 ft 436 kts 207°
2026-04-14 10:19 48.05368 8.01217 32435 ft 437 kts 207°
2026-04-14 10:20 48.02637 7.99212 32673 ft 438 kts 207°
2026-04-14 10:20 47.99905 7.97204 32889 ft 438 kts 207°
2026-04-14 10:20 47.97168 7.95193 33098 ft 439 kts 207°
2026-04-14 10:20 47.94422 7.93179 33156 ft 440 kts 207°
2026-04-14 10:21 47.89853 7.89835 33183 ft 441 kts 207°
2026-04-14 10:21 47.84344 7.85818 33178 ft 441 kts 207°
2026-04-14 10:22 47.78832 7.81813 33165 ft 441 kts 207°
2026-04-14 10:22 47.73321 7.77798 33184 ft 441 kts 207°
2026-04-14 10:23 47.67804 7.73790 33185 ft 442 kts 207°
2026-04-14 10:23 47.62283 7.69803 33192 ft 442 kts 207°
2026-04-14 10:24 47.56752 7.65819 33192 ft 442 kts 207°
2026-04-14 10:24 47.51223 7.61837 33193 ft 443 kts 207°
2026-04-14 10:25 47.45680 7.57853 33189 ft 443 kts 207°
2026-04-14 10:25 47.40133 7.53880 33183 ft 443 kts 207°
2026-04-14 10:26 47.34585 7.49911 33159 ft 443 kts 207°
2026-04-14 10:26 47.29030 7.45949 33165 ft 445 kts 207°
2026-04-14 10:27 47.23445 7.41981 33167 ft 446 kts 207°
2026-04-14 10:27 47.17966 7.37728 33165 ft 444 kts 217°
2026-04-14 10:28 47.13507 7.31559 33166 ft 440 kts 233°
2026-04-14 10:28 47.09706 7.24500 33143 ft 441 kts 233°
2026-04-14 10:29 47.05876 7.17467 33142 ft 441 kts 233°
2026-04-14 10:29 47.02040 7.10440 33181 ft 442 kts 233°
2026-04-14 10:30 47.00121 7.06926 33437 ft 442 kts 233°
2026-04-14 10:30 46.98198 7.03413 33667 ft 442 kts 233°
2026-04-14 10:30 46.96268 6.99898 33874 ft 443 kts 233°
2026-04-14 10:30 46.94334 6.96379 34069 ft 444 kts 234°
2026-04-14 10:31 46.92392 6.92851 34205 ft 447 kts 234°
2026-04-14 10:31 46.90435 6.89302 34337 ft 449 kts 234°
2026-04-14 10:31 46.88479 6.85756 34502 ft 449 kts 234°
2026-04-14 10:31 46.86516 6.82195 34684 ft 449 kts 234°
2026-04-14 10:32 46.84555 6.78643 34858 ft 450 kts 233°
2026-04-14 10:32 46.82590 6.75086 35043 ft 450 kts 233°
2026-04-14 10:32 46.78659 6.67998 35159 ft 448 kts 233°
2026-04-14 10:33 46.74734 6.60961 35149 ft 446 kts 233°
2026-04-14 10:33 46.70822 6.53950 35132 ft 446 kts 233°
2026-04-14 10:34 46.64944 6.43435 35143 ft 447 kts 233°
2026-04-14 10:35 46.61005 6.36418 35133 ft 448 kts 233°
2026-04-14 10:35 46.57056 6.29414 35141 ft 448 kts 233°
2026-04-14 10:36 46.53132 6.22463 35133 ft 448 kts 233°
2026-04-14 10:36 46.49179 6.15470 35134 ft 448 kts 233°
2026-04-14 10:37 46.45223 6.08486 35136 ft 448 kts 233°
2026-04-14 10:37 46.41260 6.01515 35129 ft 448 kts 234°
2026-04-14 10:38 46.37283 5.94547 35119 ft 449 kts 233°
2026-04-14 10:38 46.33298 5.87574 35125 ft 450 kts 233°
2026-04-14 10:39 46.29309 5.80603 35128 ft 450 kts 233°
2026-04-14 10:39 46.25306 5.73635 35136 ft 451 kts 233°
2026-04-14 10:40 46.21293 5.66678 35140 ft 451 kts 233°
2026-04-14 10:40 46.17275 5.59723 35138 ft 451 kts 233°
2026-04-14 10:41 46.13435 5.52611 35135 ft 448 kts 239°
2026-04-14 10:41 46.09909 5.45200 35130 ft 449 kts 239°
2026-04-14 10:42 46.06353 5.37806 35134 ft 449 kts 239°
2026-04-14 10:42 46.02781 5.30431 35135 ft 449 kts 239°
2026-04-14 10:43 45.99215 5.23050 35137 ft 449 kts 239°
2026-04-14 10:43 45.95645 5.15669 35144 ft 450 kts 239°
2026-04-14 10:44 45.92067 5.08289 35130 ft 451 kts 239°
2026-04-14 10:44 45.88465 5.00890 35137 ft 452 kts 239°
2026-04-14 10:45 45.84848 4.93491 35136 ft 453 kts 239°
2026-04-14 10:45 45.81221 4.86084 35144 ft 454 kts 239°
2026-04-14 10:46 45.77591 4.78667 35152 ft 455 kts 239°
2026-04-14 10:46 45.73973 4.71303 35156 ft 455 kts 239°
2026-04-14 10:47 45.70320 4.63896 35136 ft 457 kts 239°
2026-04-14 10:47 45.66644 4.56465 35132 ft 458 kts 239°
2026-04-14 10:48 45.62954 4.49024 35145 ft 459 kts 239°
2026-04-14 10:48 45.59230 4.41526 35149 ft 460 kts 239°
2026-04-14 10:49 45.55520 4.34082 35145 ft 460 kts 239°
2026-04-14 10:49 45.51801 4.26644 35127 ft 461 kts 240°
2026-04-14 10:50 45.48071 4.19197 35134 ft 463 kts 240°
2026-04-14 10:50 45.44322 4.11733 35139 ft 464 kts 240°
2026-04-14 10:51 45.40559 4.04267 35142 ft 464 kts 240°
2026-04-14 10:51 45.36787 3.96803 35155 ft 465 kts 240°
2026-04-14 10:52 45.33002 3.89340 35149 ft 466 kts 239°
2026-04-14 10:52 45.29214 3.81874 35120 ft 466 kts 240°
2026-04-14 10:53 45.25417 3.74411 35144 ft 467 kts 240°
2026-04-14 10:53 45.21698 3.66939 35149 ft 467 kts 241°
2026-04-14 10:54 45.18009 3.59365 35155 ft 467 kts 241°
2026-04-14 10:54 45.14298 3.51806 35164 ft 467 kts 240°
2026-04-14 10:55 45.10554 3.44273 35161 ft 468 kts 240°
2026-04-14 10:55 45.06803 3.36747 35165 ft 468 kts 240°
2026-04-14 10:56 45.03056 3.29216 35168 ft 468 kts 240°
2026-04-14 10:56 44.99305 3.21698 35164 ft 468 kts 240°
2026-04-14 10:57 44.95541 3.14197 35166 ft 468 kts 240°
2026-04-14 10:57 44.91773 3.06698 35162 ft 468 kts 240°
2026-04-14 10:58 44.88001 2.99204 35142 ft 469 kts 240°
2026-04-14 10:58 44.84233 2.91713 35148 ft 468 kts 241°
2026-04-14 10:59 44.80641 2.84092 35141 ft 466 kts 244°
2026-04-14 10:59 44.77181 2.76378 35150 ft 466 kts 244°
2026-04-14 11:00 44.73693 2.68682 35149 ft 467 kts 243°
2026-04-14 11:00 44.70146 2.61032 35135 ft 467 kts 244°
2026-04-14 11:01 44.66577 2.53395 35140 ft 468 kts 243°
2026-04-14 11:01 44.63004 2.45763 35147 ft 468 kts 243°
2026-04-14 11:02 44.59438 2.38129 35150 ft 467 kts 244°
2026-04-14 11:02 44.55874 2.30501 35146 ft 467 kts 243°
2026-04-14 11:03 44.52296 2.22884 35132 ft 468 kts 244°
2026-04-14 11:03 44.48710 2.15268 35142 ft 468 kts 244°
2026-04-14 11:04 44.45117 2.07663 35161 ft 469 kts 244°
2026-04-14 11:04 44.41512 2.00063 35168 ft 469 kts 244°
2026-04-14 11:05 44.37904 1.92467 35167 ft 469 kts 244°
2026-04-14 11:05 44.34290 1.84871 35153 ft 470 kts 244°
2026-04-14 11:06 44.31279 1.78560 35168 ft 470 kts 244°
2026-04-14 11:06 44.27670 1.70965 35176 ft 469 kts 245°
2026-04-14 11:07 44.24159 1.63306 35191 ft 468 kts 245°
2026-04-14 11:07 44.20677 1.55633 35191 ft 468 kts 245°
2026-04-14 11:08 44.17169 1.47983 35172 ft 469 kts 245°
2026-04-14 11:08 44.13627 1.40345 35181 ft 469 kts 245°
2026-04-14 11:09 44.10073 1.32723 35197 ft 469 kts 245°
2026-04-14 11:09 44.06526 1.25101 35202 ft 469 kts 245°
2026-04-14 11:10 44.01199 1.13679 35184 ft 469 kts 245°
2026-04-14 11:10 43.97642 1.06072 35196 ft 470 kts 245°
2026-04-14 11:11 43.94069 0.98464 35199 ft 471 kts 244°
2026-04-14 11:11 43.90486 0.90867 35207 ft 471 kts 244°
2026-04-14 11:12 43.86456 0.83622 35207 ft 479 kts 235°
2026-04-14 11:12 43.82002 0.76744 35205 ft 480 kts 235°
2026-04-14 11:13 43.77534 0.69869 35194 ft 480 kts 235°
2026-04-14 11:13 43.73070 0.62985 35200 ft 481 kts 235°
2026-04-14 11:14 43.68598 0.56103 35207 ft 481 kts 235°
2026-04-14 11:14 43.64143 0.49277 35209 ft 482 kts 235°
2026-04-14 11:15 43.59645 0.42414 35212 ft 482 kts 234°
2026-04-14 11:15 43.55148 0.35551 35186 ft 482 kts 235°
2026-04-14 11:16 43.50639 0.28689 35194 ft 483 kts 235°
2026-04-14 11:16 43.46103 0.21808 35208 ft 484 kts 235°
2026-04-14 11:17 43.41573 0.14947 35203 ft 484 kts 235°
2026-04-14 11:17 43.37040 0.08095 35202 ft 485 kts 235°
2026-04-14 11:18 43.32496 0.01248 35204 ft 485 kts 235°
2026-04-14 11:18 43.27945 -0.05598 35191 ft 485 kts 235°
2026-04-14 11:19 43.23418 -0.12382 35205 ft 486 kts 235°
2026-04-14 11:19 43.18854 -0.19208 35210 ft 485 kts 235°
2026-04-14 11:20 43.14289 -0.26025 35214 ft 485 kts 235°
2026-04-14 11:20 43.09721 -0.32824 35205 ft 485 kts 235°
2026-04-14 11:21 43.05152 -0.39611 35213 ft 485 kts 234°
2026-04-14 11:21 43.00577 -0.46386 35180 ft 485 kts 234°
2026-04-14 11:22 42.96005 -0.53147 35193 ft 484 kts 234°
2026-04-14 11:22 42.91450 -0.59896 35192 ft 481 kts 237°
2026-04-14 11:23 42.87948 -0.67343 35184 ft 460 kts 255°
2026-04-14 11:23 42.86850 -0.71432 35178 ft 447 kts 264°
2026-04-14 11:23 42.86201 -0.75536 35186 ft 440 kts 269°
2026-04-14 11:24 42.85136 -0.83767 35154 ft 441 kts 270°
2026-04-14 11:24 42.84054 -0.91950 35166 ft 443 kts 269°
2026-04-14 11:25 42.82949 -1.00193 35154 ft 442 kts 269°
2026-04-14 11:25 42.81840 -1.08440 35171 ft 442 kts 269°
2026-04-14 11:26 42.80730 -1.16677 35149 ft 442 kts 269°
2026-04-14 11:26 42.79620 -1.24921 35175 ft 443 kts 269°
2026-04-14 11:27 42.78496 -1.33168 35186 ft 443 kts 269°
2026-04-14 11:27 42.77376 -1.41362 35201 ft 443 kts 269°
2026-04-14 11:28 42.76241 -1.49610 35209 ft 443 kts 269°
2026-04-14 11:28 42.75102 -1.57846 35192 ft 442 kts 269°
2026-04-14 11:29 42.73954 -1.66058 35209 ft 442 kts 269°
2026-04-14 11:29 42.72480 -1.74225 35218 ft 449 kts 262°
2026-04-14 11:30 42.70646 -1.82335 35212 ft 449 kts 262°
2026-04-14 11:30 42.68811 -1.90442 35193 ft 449 kts 262°
2026-04-14 11:31 42.66977 -1.98535 35184 ft 448 kts 262°
2026-04-14 11:31 42.65157 -2.06568 35204 ft 447 kts 262°
2026-04-14 11:32 42.63319 -2.14637 35216 ft 447 kts 262°
2026-04-14 11:32 42.61425 -2.22684 35217 ft 448 kts 261°
2026-04-14 11:33 42.59459 -2.30705 35187 ft 447 kts 261°
2026-04-14 11:34 42.56509 -2.42706 35211 ft 446 kts 261°
2026-04-14 11:34 42.54561 -2.50687 35214 ft 446 kts 261°
2026-04-14 11:35 42.52604 -2.58655 35227 ft 445 kts 261°
2026-04-14 11:35 42.50649 -2.66620 35213 ft 445 kts 261°
2026-04-14 11:36 42.48683 -2.74567 35200 ft 445 kts 260°
2026-04-14 11:36 42.46707 -2.82503 35210 ft 444 kts 260°
2026-04-14 11:37 42.44567 -2.90319 35216 ft 451 kts 254°
2026-04-14 11:37 42.41957 -2.98029 35217 ft 450 kts 253°
2026-04-14 11:38 42.39337 -3.05729 35182 ft 450 kts 253°
2026-04-14 11:38 42.36701 -3.13428 35201 ft 449 kts 253°
2026-04-14 11:39 42.34078 -3.21070 35209 ft 449 kts 253°
2026-04-14 11:39 42.31451 -3.28721 35223 ft 449 kts 253°
2026-04-14 11:40 42.28822 -3.36368 35232 ft 449 kts 253°
2026-04-14 11:40 42.26199 -3.43951 35203 ft 449 kts 252°
2026-04-14 11:41 42.23551 -3.51563 35224 ft 447 kts 253°
2026-04-14 11:41 42.20917 -3.59163 35239 ft 447 kts 253°
2026-04-14 11:42 42.18279 -3.66747 35219 ft 447 kts 252°
2026-04-14 11:42 42.15632 -3.74318 35219 ft 446 kts 252°
2026-04-14 11:43 42.12985 -3.81883 35211 ft 446 kts 252°
2026-04-14 11:43 42.10338 -3.89438 35211 ft 446 kts 252°
2026-04-14 11:44 42.07686 -3.96974 35221 ft 445 kts 252°
2026-04-14 11:44 42.05026 -4.04490 35226 ft 445 kts 252°
2026-04-14 11:45 42.02365 -4.12000 35223 ft 445 kts 252°
2026-04-14 11:45 41.99593 -4.19443 35219 ft 446 kts 250°
2026-04-14 11:46 41.96728 -4.26837 35217 ft 446 kts 250°
2026-04-14 11:46 41.93873 -4.34233 35225 ft 446 kts 250°
2026-04-14 11:47 41.91047 -4.41642 35223 ft 446 kts 251°
2026-04-14 11:47 41.88226 -4.49052 35220 ft 446 kts 250°
2026-04-14 11:48 41.85386 -4.56457 35225 ft 446 kts 250°
2026-04-14 11:48 41.82539 -4.63853 35224 ft 446 kts 250°
2026-04-14 11:49 41.79681 -4.71239 35249 ft 446 kts 250°
2026-04-14 11:49 41.76829 -4.78609 35256 ft 445 kts 250°
2026-04-14 11:50 41.73973 -4.85966 35257 ft 445 kts 250°
2026-04-14 11:50 41.71113 -4.93309 35254 ft 445 kts 250°
2026-04-14 11:51 41.66852 -5.04249 35238 ft 443 kts 249°
2026-04-14 11:51 41.63997 -5.11551 35233 ft 443 kts 249°
2026-04-14 11:52 41.61125 -5.18843 35233 ft 443 kts 249°
2026-04-14 11:52 41.58251 -5.26130 35229 ft 443 kts 249°
2026-04-14 11:53 41.55381 -5.33415 35206 ft 443 kts 249°
2026-04-14 11:53 41.52509 -5.40690 35224 ft 443 kts 249°
2026-04-14 11:54 41.49633 -5.47946 35228 ft 442 kts 249°
2026-04-14 11:54 41.46752 -5.55191 35237 ft 442 kts 249°
2026-04-14 11:55 41.43866 -5.62430 35236 ft 442 kts 249°
2026-04-14 11:55 41.41449 -5.68483 35235 ft 441 kts 249°
2026-04-14 11:56 41.38583 -5.75650 35219 ft 441 kts 248°
2026-04-14 11:56 41.35695 -5.82851 35228 ft 441 kts 248°
2026-04-14 11:57 41.32799 -5.90042 35234 ft 441 kts 248°
2026-04-14 11:57 41.29908 -5.97224 35236 ft 440 kts 248°
2026-04-14 11:58 41.27008 -6.04399 35240 ft 440 kts 248°
2026-04-14 11:58 41.24106 -6.11564 35229 ft 440 kts 248°
2026-04-14 11:59 41.21206 -6.18709 35256 ft 439 kts 248°
2026-04-14 11:59 41.18260 -6.25816 35258 ft 441 kts 243°
2026-04-14 12:00 41.14155 -6.32007 35250 ft 454 kts 227°
2026-04-14 12:00 41.09442 -6.37580 35240 ft 454 kts 227°
2026-04-14 12:01 41.04721 -6.43149 35242 ft 455 kts 227°
2026-04-14 12:01 40.99994 -6.48723 35244 ft 454 kts 227°
2026-04-14 12:02 40.95285 -6.54277 35258 ft 453 kts 227°
2026-04-14 12:02 40.90580 -6.59809 35250 ft 453 kts 227°
2026-04-14 12:03 40.85867 -6.65335 35255 ft 453 kts 227°
2026-04-14 12:03 40.81154 -6.70858 35253 ft 453 kts 227°
2026-04-14 12:04 40.76468 -6.76326 35250 ft 453 kts 227°
2026-04-14 12:04 40.71743 -6.81823 35249 ft 453 kts 227°
2026-04-14 12:05 40.67028 -6.87316 35234 ft 452 kts 227°
2026-04-14 12:05 40.62314 -6.92801 35250 ft 452 kts 227°
2026-04-14 12:06 40.57604 -6.98264 35256 ft 451 kts 227°
2026-04-14 12:06 40.52889 -7.03713 35262 ft 451 kts 227°
2026-04-14 12:07 40.48177 -7.09147 35258 ft 451 kts 227°
2026-04-14 12:07 40.43462 -7.14577 35261 ft 451 kts 226°
2026-04-14 12:08 40.38748 -7.19998 35255 ft 451 kts 227°
2026-04-14 12:08 40.34037 -7.25407 35242 ft 450 kts 226°
2026-04-14 12:09 40.29325 -7.30806 35254 ft 450 kts 226°
2026-04-14 12:09 40.24615 -7.36192 35257 ft 449 kts 226°
2026-04-14 12:10 40.19936 -7.41528 35251 ft 449 kts 226°
2026-04-14 12:10 40.15222 -7.46891 35248 ft 449 kts 226°
2026-04-14 12:11 40.10504 -7.52259 35253 ft 449 kts 226°
2026-04-14 12:11 40.05783 -7.57611 35253 ft 450 kts 226°
2026-04-14 12:12 40.01063 -7.62956 35244 ft 449 kts 226°
2026-04-14 12:12 39.96351 -7.68291 35255 ft 448 kts 226°
2026-04-14 12:13 39.91694 -7.73553 35259 ft 448 kts 226°
2026-04-14 12:13 39.86925 -7.78923 35255 ft 449 kts 226°
2026-04-14 12:14 39.82205 -7.84219 35258 ft 448 kts 226°
2026-04-14 12:14 39.77480 -7.89514 35265 ft 448 kts 226°
2026-04-14 12:15 39.72754 -7.94806 35255 ft 448 kts 226°
2026-04-14 12:15 39.68028 -8.00094 35254 ft 448 kts 226°
2026-04-14 12:16 39.63296 -8.05373 35267 ft 449 kts 225°
2026-04-14 12:16 39.58562 -8.10651 35261 ft 449 kts 225°
2026-04-14 12:17 39.53823 -8.15917 35264 ft 449 kts 225°
2026-04-14 12:17 39.49083 -8.21175 35263 ft 449 kts 225°
2026-04-14 12:18 39.44334 -8.26431 35263 ft 449 kts 225°
2026-04-14 12:18 39.39580 -8.31677 35266 ft 449 kts 225°
2026-04-14 12:19 39.34828 -8.36913 35268 ft 449 kts 225°
2026-04-14 12:19 39.30085 -8.42138 35286 ft 447 kts 225°
2026-04-14 12:20 39.25353 -8.47343 35284 ft 447 kts 225°
2026-04-14 12:20 39.20622 -8.52539 35289 ft 446 kts 225°
2026-04-14 12:21 39.15945 -8.57658 35273 ft 446 kts 225°
2026-04-14 12:21 39.11212 -8.62833 35279 ft 446 kts 225°
2026-04-14 12:22 39.06476 -8.68002 35285 ft 446 kts 225°
2026-04-14 12:22 39.01738 -8.73163 35278 ft 446 kts 225°
2026-04-14 12:23 38.97009 -8.78303 35299 ft 445 kts 225°
2026-04-14 12:23 38.92288 -8.83421 35309 ft 444 kts 225°
2026-04-14 12:24 38.87571 -8.88531 35311 ft 443 kts 225°
2026-04-14 12:24 38.82860 -8.93629 35311 ft 443 kts 225°
2026-04-14 12:25 38.78144 -8.98712 35310 ft 443 kts 225°
2026-04-14 12:25 38.73433 -9.03792 35299 ft 443 kts 225°
2026-04-14 12:26 38.68720 -9.08864 35299 ft 443 kts 225°
2026-04-14 12:26 38.64004 -9.13921 35300 ft 442 kts 224°
2026-04-14 12:27 38.59293 -9.18959 35303 ft 441 kts 224°
2026-04-14 12:27 38.54592 -9.23988 35309 ft 440 kts 224°
2026-04-14 12:28 38.49895 -9.29007 35303 ft 440 kts 224°
2026-04-14 12:28 38.45225 -9.33985 35302 ft 440 kts 224°
2026-04-14 12:29 38.40530 -9.38994 35306 ft 440 kts 224°
2026-04-14 12:29 38.35828 -9.43989 35306 ft 440 kts 224°
2026-04-14 12:30 38.31123 -9.48976 35291 ft 440 kts 224°
2026-04-14 12:30 38.26418 -9.53953 35299 ft 440 kts 224°
2026-04-14 12:31 38.21710 -9.58918 35299 ft 440 kts 224°
2026-04-14 12:31 38.17006 -9.63885 35302 ft 439 kts 224°
2026-04-14 12:32 38.12303 -9.68849 35305 ft 439 kts 224°
2026-04-14 12:32 38.07594 -9.73797 35305 ft 439 kts 224°
2026-04-14 12:33 38.02882 -9.78733 35311 ft 439 kts 224°
2026-04-14 12:33 37.98458 -9.84004 35300 ft 433 kts 233°
2026-04-14 12:34 37.94529 -9.89796 35301 ft 433 kts 233°
2026-04-14 12:34 37.90593 -9.95567 35309 ft 433 kts 233°
2026-04-14 12:35 37.86677 -10.01296 35308 ft 433 kts 233°
2026-04-14 12:35 37.82736 -10.07054 35317 ft 433 kts 233°
2026-04-14 12:36 37.78793 -10.12803 35316 ft 433 kts 233°
2026-04-14 12:36 37.74844 -10.18549 35302 ft 433 kts 233°
2026-04-14 12:37 37.70897 -10.24285 35312 ft 432 kts 232°
2026-04-14 12:37 37.66950 -10.30013 35319 ft 432 kts 232°
2026-04-14 12:38 37.61025 -10.38579 35322 ft 432 kts 232°
2026-04-14 12:39 37.57074 -10.44279 35321 ft 431 kts 232°
2026-04-14 12:39 37.53131 -10.49973 35322 ft 431 kts 232°
2026-04-14 12:40 37.49178 -10.55659 35321 ft 431 kts 232°
2026-04-14 12:40 37.45226 -10.61340 35308 ft 431 kts 232°
2026-04-14 12:41 37.41272 -10.67003 35315 ft 431 kts 232°
2026-04-14 12:41 37.37321 -10.72660 35324 ft 430 kts 232°
2026-04-14 12:42 37.33367 -10.78305 35323 ft 430 kts 232°
2026-04-14 12:42 37.29413 -10.83942 35323 ft 430 kts 232°
2026-04-14 12:43 37.25460 -10.89577 35328 ft 430 kts 232°
2026-04-14 12:43 37.21505 -10.95202 35327 ft 430 kts 231°
2026-04-14 12:44 37.17552 -11.00818 35317 ft 429 kts 231°
2026-04-14 12:44 37.13597 -11.06423 35322 ft 429 kts 231°
2026-04-14 12:45 37.07652 -11.14810 35322 ft 429 kts 231°
2026-04-14 12:45 37.04357 -11.19456 35322 ft 429 kts 231°
2026-04-14 12:46 37.00402 -11.25044 35323 ft 429 kts 231°
2026-04-14 12:46 36.95799 -11.31527 35326 ft 429 kts 231°
2026-04-14 12:47 36.92475 -11.36184 35323 ft 428 kts 231°
2026-04-14 12:47 36.88503 -11.41730 35329 ft 428 kts 231°
2026-04-14 12:48 36.84544 -11.47278 35330 ft 428 kts 231°
2026-04-14 12:48 36.80588 -11.52819 35332 ft 427 kts 231°
2026-04-14 12:49 36.76621 -11.58342 35326 ft 427 kts 231°
2026-04-14 12:49 36.72663 -11.63868 35326 ft 427 kts 231°
2026-04-14 12:50 36.66709 -11.72136 35323 ft 427 kts 231°
2026-04-14 12:51 36.62736 -11.77633 35321 ft 427 kts 230°
2026-04-14 12:51 36.58757 -11.83128 35322 ft 427 kts 230°
2026-04-14 12:52 36.54784 -11.88621 35321 ft 427 kts 230°
2026-04-14 12:52 36.50806 -11.94116 35323 ft 427 kts 230°
2026-04-14 12:53 36.46829 -11.99601 35324 ft 427 kts 230°
2026-04-14 12:53 36.42849 -12.05081 35321 ft 427 kts 230°
2026-04-14 12:54 36.38860 -12.10548 35326 ft 427 kts 230°
2026-04-14 12:54 36.34876 -12.16007 35318 ft 427 kts 230°
2026-04-14 12:55 36.30914 -12.21436 35316 ft 427 kts 230°
2026-04-14 12:55 36.26920 -12.26896 35317 ft 428 kts 230°
2026-04-14 12:56 36.22920 -12.32348 35318 ft 428 kts 230°
2026-04-14 12:56 36.18912 -12.37799 35319 ft 428 kts 230°
2026-04-14 12:57 36.14902 -12.43237 35324 ft 428 kts 229°
2026-04-14 12:57 36.10900 -12.48676 35334 ft 427 kts 229°
2026-04-14 12:58 36.06900 -12.54097 35325 ft 427 kts 229°
2026-04-14 12:58 36.02895 -12.59505 35325 ft 427 kts 229°
2026-04-14 12:59 35.98893 -12.64915 35326 ft 427 kts 229°
2026-04-14 12:59 35.94890 -12.70324 35326 ft 427 kts 229°
2026-04-14 13:00 35.90882 -12.75727 35327 ft 427 kts 229°
2026-04-14 13:00 35.86869 -12.81112 35331 ft 426 kts 229°
2026-04-14 13:01 35.82857 -12.86481 35336 ft 426 kts 229°
2026-04-14 13:01 35.78850 -12.91846 35329 ft 425 kts 229°
2026-04-14 13:02 35.74845 -12.97212 35329 ft 425 kts 229°
2026-04-14 13:02 35.70834 -13.02563 35329 ft 425 kts 229°
2026-04-14 13:03 35.66822 -13.07912 35329 ft 425 kts 229°
2026-04-14 13:03 35.62811 -13.13251 35329 ft 425 kts 229°
2026-04-14 13:04 35.58797 -13.18588 35330 ft 425 kts 228°
2026-04-14 13:04 35.54781 -13.23918 35331 ft 425 kts 228°
2026-04-14 13:05 35.50794 -13.29204 35328 ft 425 kts 228°
2026-04-14 13:05 35.46753 -13.34557 35325 ft 425 kts 228°
2026-04-14 13:06 35.42754 -13.39828 35325 ft 425 kts 228°
2026-04-14 13:06 35.38729 -13.45126 35328 ft 425 kts 228°
2026-04-14 13:07 35.34711 -13.50426 35337 ft 424 kts 228°
2026-04-14 13:07 35.30683 -13.55712 35338 ft 424 kts 228°
2026-04-14 13:08 35.26657 -13.60990 35330 ft 424 kts 228°
2026-04-14 13:08 35.22632 -13.66269 35333 ft 424 kts 228°
2026-04-14 13:09 35.18608 -13.71537 35325 ft 424 kts 228°
2026-04-14 13:09 35.14582 -13.76802 35334 ft 424 kts 228°
2026-04-14 13:10 35.10550 -13.82058 35331 ft 424 kts 227°
2026-04-14 13:10 35.06511 -13.87300 35334 ft 424 kts 227°
2026-04-14 13:11 35.02478 -13.92543 35333 ft 423 kts 227°
2026-04-14 13:11 34.98448 -13.97776 35337 ft 423 kts 227°
2026-04-14 13:12 34.94422 -14.03007 35335 ft 423 kts 227°
2026-04-14 13:12 34.90392 -14.08235 35317 ft 423 kts 227°
2026-04-14 13:13 34.86357 -14.13450 35316 ft 423 kts 227°
2026-04-14 13:13 34.82308 -14.18660 35322 ft 423 kts 227°
2026-04-14 13:14 34.78268 -14.23874 35331 ft 423 kts 227°
2026-04-14 13:14 34.74222 -14.29078 35324 ft 423 kts 227°
2026-04-14 13:15 34.70175 -14.34272 35331 ft 423 kts 227°
2026-04-14 13:15 34.66126 -14.39460 35330 ft 423 kts 227°
2026-04-14 13:16 34.62081 -14.44645 35321 ft 423 kts 227°
2026-04-14 13:16 34.58026 -14.49829 35325 ft 423 kts 227°
2026-04-14 13:17 34.53966 -14.55011 35320 ft 424 kts 227°
2026-04-14 13:17 34.49932 -14.60155 35330 ft 424 kts 227°
2026-04-14 13:18 34.45862 -14.65328 35319 ft 424 kts 227°
2026-04-14 13:18 34.41795 -14.70495 35318 ft 424 kts 227°
2026-04-14 13:19 34.37729 -14.75660 35323 ft 424 kts 227°
2026-04-14 13:19 34.33659 -14.80815 35326 ft 424 kts 227°
2026-04-14 13:20 34.29585 -14.85972 35324 ft 424 kts 227°
2026-04-14 13:20 34.25503 -14.91119 35323 ft 424 kts 226°
2026-04-14 13:21 34.21422 -14.96263 35323 ft 424 kts 227°
2026-04-14 13:21 34.19381 -14.98834 35165 ft 422 kts 226°
2026-04-14 13:21 34.17359 -15.01379 34927 ft 418 kts 226°
2026-04-14 13:21 34.15349 -15.03908 34691 ft 416 kts 226°
2026-04-14 13:22 34.13349 -15.06428 34454 ft 415 kts 226°
2026-04-14 13:22 34.11353 -15.08940 34209 ft 414 kts 226°
2026-04-14 13:22 34.09373 -15.11429 33795 ft 409 kts 226°
2026-04-14 13:22 34.07410 -15.13891 33306 ft 406 kts 226°
2026-04-14 13:23 34.05460 -15.16332 32829 ft 403 kts 226°
2026-04-14 13:23 34.03522 -15.18759 32339 ft 400 kts 226°
2026-04-14 13:23 34.01603 -15.21165 31870 ft 397 kts 226°
2026-04-14 13:23 33.99694 -15.23557 31417 ft 394 kts 227°
2026-04-14 13:24 33.97796 -15.25929 30958 ft 392 kts 226°
2026-04-14 13:24 33.94025 -15.30648 30289 ft 389 kts 226°
2026-04-14 13:24 33.92142 -15.32995 29559 ft 391 kts 227°
2026-04-14 13:25 33.90258 -15.35337 29135 ft 386 kts 226°
2026-04-14 13:25 33.88402 -15.37641 28720 ft 381 kts 226°
2026-04-14 13:26 33.82968 -15.44409 27482 ft 369 kts 227°
2026-04-14 13:26 33.81191 -15.46618 27061 ft 366 kts 227°
2026-04-14 13:26 33.79431 -15.48804 26647 ft 363 kts 227°
2026-04-14 13:26 33.77675 -15.50980 26358 ft 364 kts 227°
2026-04-14 13:27 33.75903 -15.53173 26321 ft 367 kts 227°
2026-04-14 13:27 33.74115 -15.55385 25610 ft 371 kts 226°
2026-04-14 13:27 33.72303 -15.57630 24682 ft 373 kts 227°
2026-04-14 13:27 33.70542 -15.59810 24401 ft 355 kts 227°
2026-04-14 13:28 33.68855 -15.61896 23983 ft 343 kts 227°
2026-04-14 13:28 33.67210 -15.63929 23513 ft 337 kts 227°
2026-04-14 13:28 33.65579 -15.65941 23083 ft 335 kts 226°
2026-04-14 13:28 33.63960 -15.67938 22666 ft 333 kts 227°
2026-04-14 13:29 33.62352 -15.69925 22244 ft 331 kts 228°
2026-04-14 13:29 33.60752 -15.71907 21847 ft 330 kts 227°
2026-04-14 13:29 33.59159 -15.73874 21437 ft 329 kts 226°
2026-04-14 13:29 33.57565 -15.75836 21033 ft 328 kts 227°
2026-04-14 13:30 33.55975 -15.77791 20631 ft 327 kts 228°
2026-04-14 13:30 33.54375 -15.79731 20227 ft 327 kts 226°
2026-04-14 13:30 33.52758 -15.81641 19827 ft 327 kts 226°
2026-04-14 13:30 33.51128 -15.83544 19425 ft 327 kts 225°
2026-04-14 13:31 33.49495 -15.85442 19029 ft 327 kts 226°
2026-04-14 13:31 33.47861 -15.87342 18621 ft 328 kts 227°
2026-04-14 13:31 33.46222 -15.89250 18177 ft 328 kts 226°
2026-04-14 13:31 33.44592 -15.91152 17783 ft 327 kts 226°
2026-04-14 13:32 33.43515 -15.92411 17517 ft 326 kts 226°
2026-04-14 13:32 33.41896 -15.94307 17135 ft 325 kts 226°
2026-04-14 13:32 33.40280 -15.96201 16749 ft 325 kts 227°
2026-04-14 13:32 33.38664 -15.98093 16365 ft 325 kts 225°
2026-04-14 13:33 33.37046 -15.99981 15981 ft 325 kts 225°
2026-04-14 13:33 33.35428 -16.01867 15604 ft 325 kts 226°
2026-04-14 13:33 33.33810 -16.03752 15222 ft 325 kts 225°
2026-04-14 13:33 33.32190 -16.05642 14844 ft 325 kts 225°
2026-04-14 13:34 33.28944 -16.09422 14071 ft 327 kts 225°
2026-04-14 13:34 33.27313 -16.11315 13654 ft 326 kts 225°
2026-04-14 13:34 33.25686 -16.13204 13270 ft 326 kts 225°
2026-04-14 13:35 33.24065 -16.15086 12884 ft 325 kts 225°
2026-04-14 13:35 33.22448 -16.16965 12492 ft 324 kts 225°
2026-04-14 13:35 33.20835 -16.18838 12110 ft 323 kts 225°
2026-04-14 13:35 33.19224 -16.20708 11701 ft 323 kts 225°
2026-04-14 13:36 33.17613 -16.22577 11303 ft 322 kts 225°
2026-04-14 13:36 33.16004 -16.24444 10896 ft 323 kts 225°
2026-04-14 13:36 33.14395 -16.26309 10594 ft 319 kts 225°
2026-04-14 13:36 33.12830 -16.28124 10367 ft 309 kts 224°
2026-04-14 13:37 33.11296 -16.29902 9745 ft 306 kts 224°
2026-04-14 13:37 33.09784 -16.31652 9261 ft 299 kts 224°
2026-04-14 13:37 33.08316 -16.33349 8845 ft 289 kts 224°
2026-04-14 13:37 33.06898 -16.34988 8465 ft 279 kts 224°
2026-04-14 13:38 33.05531 -16.36569 8093 ft 270 kts 224°
2026-04-14 13:38 33.04178 -16.38132 7708 ft 273 kts 223°
2026-04-14 13:38 33.02809 -16.39710 7323 ft 274 kts 223°
2026-04-14 13:38 33.01436 -16.41292 6927 ft 275 kts 223°
2026-04-14 13:39 33.00058 -16.42879 6502 ft 276 kts 223°
2026-04-14 13:39 32.98679 -16.44467 6090 ft 276 kts 223°
2026-04-14 13:39 32.97294 -16.46061 5673 ft 277 kts 223°
2026-04-14 13:39 32.95891 -16.47672 5028 ft 286 kts 222°
2026-04-14 13:40 32.94476 -16.49300 4728 ft 280 kts 222°
2026-04-14 13:40 32.93092 -16.50896 4147 ft 275 kts 223°
2026-04-14 13:40 32.91720 -16.52439 3779 ft 269 kts 221°
2026-04-14 13:40 32.90333 -16.53933 3509 ft 269 kts 220°
2026-04-14 13:41 32.88941 -16.55407 3230 ft 266 kts 220°
2026-04-14 13:41 32.87594 -16.56833 3041 ft 250 kts 220°
2026-04-14 13:41 32.86322 -16.58177 2999 ft 247 kts 220°
2026-04-14 13:41 32.85038 -16.59536 3006 ft 248 kts 220°
2026-04-14 13:42 32.83781 -16.60875 3007 ft 233 kts 220°
2026-04-14 13:42 32.82600 -16.62122 3012 ft 224 kts 218°
2026-04-14 13:42 32.81319 -16.63138 3005 ft 219 kts 206°
2026-04-14 13:42 32.79921 -16.63843 3008 ft 218 kts 196°
2026-04-14 13:43 32.78484 -16.64415 3007 ft 217 kts 197°
2026-04-14 13:43 32.77046 -16.64994 3010 ft 218 kts 197°
2026-04-14 13:43 32.75612 -16.65575 3014 ft 217 kts 197°
2026-04-14 13:43 32.74178 -16.66156 3008 ft 218 kts 197°
2026-04-14 13:44 32.72741 -16.66739 2966 ft 220 kts 197°
2026-04-14 13:44 32.71273 -16.67334 2535 ft 224 kts 197°
2026-04-14 13:44 32.69825 -16.67923 2257 ft 218 kts 197°
2026-04-14 13:44 32.68406 -16.68499 2032 ft 215 kts 197°
2026-04-14 13:45 32.67006 -16.69068 2003 ft 207 kts 197°
2026-04-14 13:45 32.65650 -16.69618 2035 ft 204 kts 197°
2026-04-14 13:45 32.64332 -16.70151 2023 ft 196 kts 197°
2026-04-14 13:45 32.63108 -16.70828 2008 ft 195 kts 212°
2026-04-14 13:46 32.62082 -16.71877 2009 ft 193 kts 228°
2026-04-14 13:46 32.61352 -16.73169 2005 ft 187 kts 245°
2026-04-14 13:46 32.60939 -16.74608 2006 ft 183 kts 260°
2026-04-14 13:46 32.60849 -16.76110 2010 ft 182 kts 275°
2026-04-14 13:47 32.61072 -16.77574 2010 ft 180 kts 291°
2026-04-14 13:47 32.61634 -16.78857 1800 ft 172 kts 313°
2026-04-14 13:47 32.62499 -16.79754 1568 ft 160 kts 332°
2026-04-14 13:47 32.63481 -16.80237 1364 ft 146 kts 351°
2026-04-14 13:48 32.64459 -16.80348 1174 ft 141 kts
2026-04-14 13:48 32.65425 -16.80319 974 ft 138 kts
2026-04-14 13:48 32.66387 -16.80269 809 ft 138 kts
2026-04-14 13:48 32.67301 -16.79977 652 ft 137 kts 25°
2026-04-14 13:49 32.68090 -16.79392 473 ft 133 kts 41°
2026-04-14 13:49 32.68761 -16.78643 263 ft 133 kts 44°
2026-04-14 13:49 32.69409 -16.77892 175 ft 123 kts 44°
2026-04-14 13:49 32.69888 -16.77338 190 ft 56 kts 44°
2026-04-14 13:50 32.69941 -16.77191 198 ft 13 kts 130°
2026-04-14 13:50 32.69879 -16.77177 187 ft 6 kts 180°
2026-04-14 13:50 32.69825 -16.77196 182 ft 9 kts 213°
2026-04-14 13:50 32.69776 -16.77255 178 ft 12 kts 227°
2026-04-14 13:51 32.69726 -16.77318 172 ft 11 kts 226°
2026-04-14 13:51 32.69671 -16.77384 169 ft 12 kts 226°
2026-04-14 13:51 32.69618 -16.77449 169 ft 10 kts 226°
2026-04-14 13:51 32.69571 -16.77508 169 ft 9 kts 226°
2026-04-14 13:52 32.69529 -16.77560 169 ft 8 kts 226°
2026-04-14 13:52 32.69492 -16.77606 169 ft 7 kts 226°
2026-04-14 13:52 32.69449 -16.77659 169 ft 10 kts 226°
2026-04-14 13:52 32.69403 -16.77715 169 ft 9 kts 226°
2026-04-14 13:53 32.69365 -16.77731 169 ft 5 kts 146°
2026-04-14 13:53 32.69350 -16.77713 169 ft 2 kts 135°
2026-04-14 13:53 32.69344 -16.77706 169 ft 1 kts 136°
2026-04-14 13:53 32.69339 -16.77700 169 ft 1 kts 137°
2026-04-14 13:54 32.69331 -16.77692 169 ft 1 kts 138°